• In Hungary
  • List of Countries
  • For 7 days
  • Water Temperature
  • Satellite Maps
  • Weather Map
  • News
  • Weather Widgets
  • user-avatar
    Login

    Hourly Weather Humpolec

    Today, 21 September, Friday

    Time Temperature Precipitation Wind Pressure Humidity
    00:00 +17°C° 0 mm 2 mps 713 mmHg 75%
    01:00 +16°C° 0 mm 2 mps 713 mmHg 76%
    02:00 +16°C° 0 mm 2 mps 713 mmHg 77%
    03:00 +16°C° 0 mm 2 mps 712 mmHg 77%
    04:00 +15°C° 0 mm 2 mps 712 mmHg 78%
    05:00 +15°C° 0 mm 2 mps 712 mmHg 78%
    06:00 +14°C° 0 mm 3 mps 711 mmHg 77%
    07:00 +16°C° 0 mm 3 mps 711 mmHg 77%
    08:00 +17°C° 0 mm 3 mps 711 mmHg 71%
    09:00 +19°C° 0 mm 4 mps 711 mmHg 65%
    10:00 +21°C° 0 mm 5 mps 711 mmHg 59%
    11:00 +23°C° 0 mm 5 mps 711 mmHg 56%
    12:00 +25°C° 0 mm 5 mps 711 mmHg 52%
    13:00 +26°C° 0 mm 5 mps 711 mmHg 49%
    14:00 +26°C° 0 mm 4 mps 710 mmHg 50%
    15:00 +26°C° 0 mm 4 mps 710 mmHg 51%
    16:00 +26°C° 0 mm 3 mps 709 mmHg 52%
    17:00 +24°C° 0.1 mm 3 mps 709 mmHg 57%
    18:00 +22°C° 0.1 mm 3 mps 709 mmHg 62%
    19:00 +20°C° 0.1 mm 3 mps 709 mmHg 67%
    20:00 +19°C° 0.3 mm 4 mps 710 mmHg 72%
    21:00 +18°C° 0.3 mm 4 mps 711 mmHg 76%
    22:00 +17°C° 0.3 mm 5 mps 711 mmHg 81%
    23:00 +15°C° 1.1 mm 5 mps 712 mmHg 82%

    Tomorrow, 22 September, Saturday

    Time Temperature Precipitation Wind Pressure Humidity
    00:00 +13°C° 1.1 mm 5 mps 712 mmHg 83%
    01:00 +12°C° 1.1 mm 5 mps 713 mmHg 84%
    02:00 +11°C° 0.3 mm 4 mps 713 mmHg 83%
    03:00 +11°C° 0.3 mm 4 mps 714 mmHg 82%
    04:00 +11°C° 0.3 mm 3 mps 715 mmHg 81%
    05:00 +10°C° 0.1 mm 3 mps 715 mmHg 81%
    06:00 +10°C° 0.1 mm 4 mps 715 mmHg 80%
    07:00 +10°C° 0.1 mm 4 mps 716 mmHg 80%
    08:00 +11°C° 0 mm 4 mps 716 mmHg 72%
    09:00 +12°C° 0 mm 5 mps 716 mmHg 64%
    10:00 +13°C° 0 mm 6 mps 716 mmHg 57%
    11:00 +13°C° 0 mm 6 mps 716 mmHg 54%
    12:00 +14°C° 0 mm 6 mps 716 mmHg 51%
    13:00 +15°C° 0 mm 6 mps 716 mmHg 48%
    14:00 +14°C° 0 mm 5 mps 715 mmHg 48%
    15:00 +14°C° 0 mm 5 mps 715 mmHg 49%
    16:00 +14°C° 0 mm 5 mps 715 mmHg 50%
    17:00 +13°C° 0 mm 4 mps 715 mmHg 52%
    18:00 +12°C° 0 mm 4 mps 715 mmHg 55%
    19:00 +11°C° 0 mm 3 mps 716 mmHg 58%
    20:00 +11°C° 0 mm 3 mps 716 mmHg 61%
    21:00 +10°C° 0 mm 3 mps 716 mmHg 64%
    22:00 +9°C° 0 mm 3 mps 716 mmHg 67%
    23:00 +8°C° 0 mm 3 mps 716 mmHg 69%

    Day after tomorrow, 23 September, Sunday

    Time Temperature Precipitation Wind Pressure Humidity
    00:00 +8°C° 0 mm 3 mps 716 mmHg 71%
    01:00 +8°C° 0 mm 3 mps 716 mmHg 73%
    02:00 +7°C° 0 mm 2 mps 716 mmHg 74%
    03:00 +7°C° 0 mm 2 mps 716 mmHg 74%
    04:00 +7°C° 0 mm 2 mps 716 mmHg 75%
    05:00 +8°C° 0 mm 2 mps 716 mmHg 73%
    06:00 +8°C° 0 mm 2 mps 716 mmHg 72%
    07:00 +9°C° 0 mm 2 mps 716 mmHg 70%
    08:00 +10°C° 0 mm 2 mps 716 mmHg 69%
    09:00 +11°C° 0 mm 3 mps 716 mmHg 67%
    10:00 +11°C° 0 mm 3 mps 716 mmHg 66%
    11:00 +12°C° 0 mm 3 mps 716 mmHg 65%
    12:00 +13°C° 0 mm 4 mps 715 mmHg 64%
    13:00 +14°C° 0 mm 4 mps 715 mmHg 63%
    14:00 +13°C° 0.2 mm 4 mps 714 mmHg 68%
    15:00 +13°C° 0.2 mm 3 mps 713 mmHg 74%
    16:00 +13°C° 0.2 mm 3 mps 713 mmHg 80%
    17:00 +12°C° 0 mm 3 mps 712 mmHg 82%
    18:00 +12°C° 0 mm 3 mps 711 mmHg 84%
    19:00 +12°C° 0 mm 4 mps 711 mmHg 87%
    20:00 +12°C° 0.3 mm 4 mps 710 mmHg 86%
    21:00 +13°C° 0.3 mm 4 mps 709 mmHg 86%
    22:00 +13°C° 0.3 mm 4 mps 708 mmHg 86%
    23:00 +13°C° 0.2 mm 5 mps 707 mmHg 84%

    24 September, Monday

    Time Temperature Precipitation Wind Pressure Humidity
    00:00 +13°C° 0.2 mm 5 mps 706 mmHg 82%
    01:00 +14°C° 0.2 mm 6 mps 704 mmHg 81%
    02:00 +14°C° 1.4 mm 6 mps 704 mmHg 82%
    03:00 +15°C° 1.4 mm 7 mps 703 mmHg 84%
    04:00 +15°C° 1.4 mm 7 mps 703 mmHg 86%
    05:00 +13°C° 1.3 mm 9 mps 703 mmHg 83%
    06:00 +13°C° 1.3 mm 10 mps 702 mmHg 79%
    07:00 +12°C° 1.3 mm 12 mps 702 mmHg 76%
    08:00 +10°C° 0.2 mm 13 mps 704 mmHg 74%
    09:00 +9°C° 0.2 mm 13 mps 707 mmHg 73%
    10:00 +6°C° 0.2 mm 14 mps 709 mmHg 71%
    11:00 +7°C° 0.1 mm 13 mps 710 mmHg 67%
    12:00 +7°C° 0.1 mm 13 mps 712 mmHg 64%
    13:00 +7°C° 0.1 mm 12 mps 713 mmHg 61%
    14:00 +8°C° 0 mm 11 mps 714 mmHg 58%
    15:00 +8°C° 0 mm 11 mps 715 mmHg 56%
    16:00 +8°C° 0 mm 11 mps 716 mmHg 54%
    17:00 +8°C° 0 mm 9 mps 716 mmHg 56%
    18:00 +7°C° 0 mm 8 mps 717 mmHg 59%
    19:00 +6°C° 0 mm 7 mps 718 mmHg 62%
    20:00 +5°C° 0 mm 7 mps 719 mmHg 65%
    21:00 +5°C° 0 mm 7 mps 719 mmHg 68%
    22:00 +4°C° 0 mm 6 mps 720 mmHg 71%
    23:00 +4°C° 0 mm 6 mps 721 mmHg 74%

    25 September, Tuesday

    Time Temperature Precipitation Wind Pressure Humidity
    00:00 +3°C° 0 mm 6 mps 721 mmHg 76%
    01:00 +3°C° 0 mm 5 mps 722 mmHg 79%
    02:00 +3°C° 0 mm 5 mps 722 mmHg 80%
    03:00 +2°C° 0 mm 5 mps 723 mmHg 82%
    04:00 +2°C° 0 mm 5 mps 723 mmHg 84%
    05:00 +2°C° 0 mm 5 mps 723 mmHg 83%
    06:00 +2°C° 0 mm 5 mps 724 mmHg 83%
    07:00 +3°C° 0 mm 4 mps 724 mmHg 83%
    08:00 +3°C° 0 mm 5 mps 725 mmHg 74%
    09:00 +6°C° 0 mm 5 mps 725 mmHg 65%
    10:00 +8°C° 0 mm 5 mps 725 mmHg 56%
    11:00 +8°C° 0 mm 5 mps 725 mmHg 53%
    12:00 +9°C° 0 mm 5 mps 725 mmHg 50%
    13:00 +10°C° 0 mm 5 mps 725 mmHg 48%
    14:00 +10°C° 0 mm 5 mps 724 mmHg 48%
    15:00 +10°C° 0 mm 5 mps 724 mmHg 49%
    16:00 +10°C° 0 mm 5 mps 723 mmHg 50%
    17:00 +8°C° 0 mm 4 mps 723 mmHg 54%
    18:00 +7°C° 0 mm 4 mps 723 mmHg 58%
    19:00 +7°C° 0 mm 3 mps 723 mmHg 62%
    20:00 +5°C° 0 mm 3 mps 723 mmHg 64%
    21:00 +5°C° 0 mm 4 mps 723 mmHg 67%
    22:00 +5°C° 0 mm 4 mps 723 mmHg 69%
    23:00 +5°C° 0 mm 4 mps 722 mmHg 71%

    26 September, Wednesday

    Time Temperature Precipitation Wind Pressure Humidity
    00:00 +5°C° 0 mm 5 mps 722 mmHg 73%
    01:00 +3°C° 0 mm 5 mps 722 mmHg 75%
    02:00 +3°C° 0 mm 5 mps 722 mmHg 78%
    03:00 +3°C° 0 mm 6 mps 722 mmHg 80%
    04:00 +4°C° 0 mm 6 mps 722 mmHg 82%
    05:00 +4°C° 0.1 mm 6 mps 722 mmHg 83%
    06:00 +5°C° 0.1 mm 5 mps 723 mmHg 84%
    07:00 +5°C° 0.1 mm 5 mps 723 mmHg 85%
    08:00 +6°C° 0 mm 5 mps 723 mmHg 83%
    09:00 +7°C° 0 mm 4 mps 723 mmHg 81%
    10:00 +8°C° 0 mm 4 mps 724 mmHg 79%
    11:00 +8°C° 0 mm 4 mps 724 mmHg 75%
    12:00 +10°C° 0 mm 4 mps 724 mmHg 72%
    13:00 +11°C° 0 mm 3 mps 723 mmHg 69%
    14:00 +11°C° 0 mm 3 mps 723 mmHg 68%
    15:00 +12°C° 0 mm 3 mps 723 mmHg 67%
    16:00 +12°C° 0 mm 3 mps 723 mmHg 66%
    17:00 +10°C° 0 mm 2 mps 723 mmHg 72%
    18:00 +10°C° 0 mm 1 mps 723 mmHg 77%
    19:00 +9°C° 0 mm 1 mps 723 mmHg 83%
    20:00 +8°C° 0 mm 1 mps 723 mmHg 84%
    21:00 +8°C° 0 mm 1 mps 723 mmHg 85%
    22:00 +7°C° 0 mm 1 mps 723 mmHg 86%
    23:00 +7°C° 0 mm 1 mps 723 mmHg 87%
    Show more